www.pogodaiklimat.ru

Погода и климат >> Архив погоды >> Россия >> Приморский край >> Кавалерово


ПОГОДА в Кавалерово

  • Прогноз погоды в Кавалерово
  • Монитор погоды в Кавалерово

АРХИВ ПОГОДЫ в Кавалерово

Время (UTC), дата Ветер
(напр.,м/с)
 
Видим.   Явления Облачность Т
(С)
Тd
(С)
f
(%)
Тe
(С)
Тes
(С)
Комфортность P
(гПа)
Po
(гПа)
Тmin
(С)
Tmax
(С)
R
(мм)
R24
(мм)
S
(см)
00 16.04 В 1
{2}
50 км ясно +8.8 -3.3 42 +9 +19 опасность
простуды
1009.9 985.4
03 16.04 В 3 50 км 1 балл +20.4 -5.5 17 +20 +32 1006.4 982.7
06 16.04 ЮЗ 4
{14}
50 км 1 балл +23.9 -8.4 11 +22 +27 комфорт 1003.4 980.0
09 16.04 З 3 50 км 6/0
[Ci fib]
+21.4 -7.2 14 +20 +20 1003.6 980.0 +23.9
12 16.04 СЗ 1 50 км 3/0
[Ci fib]
+3.4 -2.7 64 +2 +2 1006.8 981.9
15 16.04 СЗ 1 50 км ясно -1.5 -4.5 80 -4 -4 1009.7 984.0
18 16.04 З 1 50 км ясно -3.2 -5.4 85 -5 -5 1009.9 984.0
21 16.04 З 1 50 км ясно -3.1 -5.1 86 -5 -5 1011.2 985.3 -4.1
00 17.04 ЮВ 1 50 км ясно +15.4 -5.1 24 +16 +27 1007.0 983.1
03 17.04 В 3 50 км 1 балл +25.2 -8.6 10 +22 +34 комфорт 1004.6 981.3
06 17.04 ЮВ 5
{11}
50 км ясно +25.5 -9.7 9 +23 +27 комфорт 1002.0 978.7
09 17.04 ЮВ 4 50 км 5/0
[Ci sp]
+16.9 -1.3 29 +17 +17 1002.6 978.7 +26.3
12 17.04 ЮВ 2
{11}
50 км 3/0
[Ci fib]
+6.7 +2.2 73 +5 +5 1004.6 980.2
15 17.04 штиль 0 50 км 7 баллов -2.0 -3.1 92 -3 -3 1005.7 980.0
18 17.04 З 1 50 км 10 баллов -1.0 -1.8 94 -3 -3 1005.6 980.0
21 17.04 З 1 500 м туман ?/? -0.5 -0.5 100 -3 -3 1004.2 978.7 -2.0
00 18.04 штиль 0
{5}
20 км {туман} 10/10 600 м
[Sc]
+2.1 +1.5 96 +1 +1 1003.9 978.7
03 18.04 ЮВ 2 4000 м слаб. ливневой дождь 10 баллов +7.6 +2.1 68 +6 +6 1000.6 976.0
06 18.04 З 5
{10}
50 км в посл. час ливневой дождь 10/10 600 м
[Cb cap]
+7.5 +4.3 80 +4 +4 1003.4 978.7
09 18.04 З 7-11
{13}
50 км 8/8 600 м
[Sc]
+5.3 -3.0 55 0 0 1006.3 981.3 +8.6 5
12 18.04 З 9-16
{16}
50 км 8/8 600 м
[Sc]
+3.2 -5.1 54 -3 -3 1009.1 984.2
15 18.04 З 5 50 км 2 балла +2.0 -6.8 52 -3 -3 1010.7 985.3
21 18.04 СЗ 4 50 км ясно +0.8 -12.4 37 -4 -3 1011.4 986.2 -1.1
00 19.04 З 10-16
{19}
50 км 3/3 1000 м
[Cu hum]
+4.8 -13.9 24 -1 -0 1010.6 985.8
03 19.04 З 10 50 км ясно +7.6 -15.2 18 +3 +4 1011.7 986.7
06 19.04 З 9 50 км ясно +9.2 -16.9 14 +6 +7 1010.1 985.3
09 19.04 СЗ 8-12
{17}
50 км ясно +7.4 -17.5 15 +4 +4 1011.7 986.7 +9.4
12 19.04 штиль 0
{15}
50 км ясно -0.2 -14.0 34 -0 -0 1012.8 987.4
15 19.04 штиль 0 50 км ясно -6.1 -12.0 63 -7 -7 1014.3 988.0
18 19.04 В 1 50 км ясно -2.9 -12.4 48 -4 -4 1015.3 989.3
21 19.04 СВ 1 50 км ясно -4.0 -10.0 63 -6 -5 1014.4 988.6 -6.7
00 20.04 ЮЗ 3 50 км 1/0
[Ci fib]
+6.2 -13.4 23 +4 +12 1013.2 988.4
03 20.04 З 5 50 км 7 баллов +11.8 -14.8 14 +10 +13 1011.3 986.7
06 20.04 З 5 50 км 9 баллов +14.6 -16.7 10 +14 +14 1009.6 985.3
09 20.04 ЮВ 3 50 км 10/0
[Ci fib]
+7.3 -5.7 39 +5 +5 1010.2 985.3 +14.8
12 20.04 ЮВ 3 50 км 10/0
[Ci fib]
+2.3 -3.8 64 -1 -1 1012.2 987.1
15 20.04 СЗ 1 50 км 2 балла -4.3 -6.1 87 -7 -7 1014.1 988.0
18 20.04 З 1 50 км 7 баллов -2.5 -4.8 84 -5 -5 1012.6 986.7
21 20.04 штиль 0 50 км 6/6 1000 м
[Sc]
-2.2 -4.7 83 -3 -3 1012.0 986.5 -5.3
00 21.04 СЗ 1 50 км 8/0
[Ci fib]
+8.6 -2.9 44 +9 +18 1010.7 986.2
03 21.04 З 7-12
{12}
50 км 10/0
[Ci sp]
+14.5 -10.3 17 +13 +13 1009.6 985.3
06 21.04 З 6 50 км 10 баллов +14.0 -15.0 12 +12 +12 1009.7 985.3
09 21.04 СЗ 4
{12}
50 км 3/0
[Ci fib]
+12.5 -15.2 13 +11 +12 1009.8 985.3 +14.9
12 21.04 СЗ 2 50 км ясно +1.0 -10.5 42 -2 -2 1013.6 988.0
15 21.04 СЗ 1 50 км ясно -4.0 -9.2 67 -6 -6 1016.8 990.7
18 21.04 штиль 0 50 км ясно -5.6 -9.1 76 -6 -6 1018.3 992.0
21 21.04 СЗ 1 50 км ясно -5.8 -8.7 80 -8 -7 1018.2 992.2 -7.5
00 22.04 ЮВ 1 50 км ясно +10.8 -8.9 24 +11 +22 опасность
простуды
1016.9 992.4
03 22.04 З 4 50 км ясно +14.2 -12.9 14 +13 +24 опасность
простуды
1017.8 993.3
06 22.04 С 5 50 км 2 балла +17.1 -14.8 10 +17 +21 1016.3 992.0
09 22.04 СЗ 3 50 км 3/0
[Ci fib]
+15.9 -13.5 12 +16 +16 1015.0 990.7 +17.5
12 22.04 СЗ 1 50 км ясно +0.4 -8.3 52 -1 -1 1019.1 993.3
15 22.04 СЗ 2 50 км ясно -1.5 -7.2 65 -5 -5 1019.3 993.3
21 22.04 штиль 0 4000 м слаб. дождь 10/0 600 м
[As op]
+1.1 -0.3 90 -0 0 1015.9 990.6 -2.4 2

 

Местоположение метеостанции Кавалерово (Приморский край, Россия): широта 44.25 долгота 135.00 высота над уровнем моря 206 м.

В архиве по умолчанию представлена погода в Кавалерово за последнюю неделю. Архивные данные за месяц целиком и за предыдущие месяцы, начиная с января 2011 года, Вы можете получить, выбрав интересующий диапазон дат из раскрывающегося списка и нажав кнопку "Ввод!".


*Определитесь, кто Вы:
робот инопланетянин человек

Внимание! Время в таблицах - всемирное. Для получения местного времени необходимо прибавить поправку, которая равна 10 ч.

Смотрите также архив погоды в соседних городах и на ближайших метеорологических станциях:

Погода в Богополе (Приморский край, Россия) (32 км)
Погода в Ольге (Приморский край, Россия) (61 км)
Погода в Рудной Пристани (Приморский край, Россия) (65 км)
Погода в Дальнегорске (Приморский край, Россия) (90 км)
Погода в Чугуевке (Приморский край, Россия) (96 км)
Погода в Лучегорске (Приморский край, Россия) (99 км)
Погода в Лазо (Приморский край, Россия) (135 км)
Погода в Мельничном (Приморский край, Россия) (139 км)
Погода в Малиново (Приморский край, Россия) (145 км)
Погода в Тернее (Приморский край, Россия) (152 км)

Пояснения к столбцам:

Ветер - указаны скорость ветра в м/с - средняя за 10 мин, порывы в срок и между сроками (в фигурных скобках) и направление, откуда дует ветер: С - северный, СВ - северо-восточный, В - восточный, ЮВ - юго-восточный, Ю - южный, ЮЗ - юго-западный, З - западный, СЗ - северо-западный.
Видимость - горизонтальная дальность видимости в метрах или километрах. При видимости от 1 до 10 км при отсутствии осадков обычно наблюдается дымка, при ухудшении видимости до 1 км и менее - туман. В сухую погоду видимость может ухудшаться дымом, пылью или мглою.
Явления - указаны атмосферные явления, наблюдавшиеся в срок или в последний час перед сроком; фигурными скобками обозначены явления, наблюдавшиеся между сроками (за 1-3 часа до срока); квадратными скобками обозначены град или гололедные отложения с указанием их диаметра в мм.
Облачность - указаны через наклонную черту общая и нижняя облачность в баллах и высота нижней границы облаков в метрах; квадратными скобками обозначены формы облаков: Ci - перистые, Cs - перисто-слоистые, Cc - перисто-кучевые, Ac - высококучевые, As - высокослоистые, Sc - слоисто-кучевые, Ns - слоисто-дождевые, Cu - кучевые, Cb - кучево-дождевые. Подробнее классификацию облаков см. в Атласе облаков (PDF).
T - Температура воздуха - температура, измеренная на высоте 2 м над землей.
Td - Температура точки росы - температура, при понижении до которой содержащийся в воздухе водяной пар достигнет насыщения.
f - Относительная влажность воздуха - влажноcть воздуха, измеренная на высоте 2 м над землей.
Te - Эффективная температура - температура, которую ощущает одетый по сезону человек в тени. Характеристика душности погоды. При расчете учитывается влияние влажности воздуха и скорости ветра на теплоощущения человека.
Tes - Эффективная температура на солнце - температура, которую ощущает человек, с поправкой на солнечный нагрев. Характеристика знойности погоды. Зависит от высоты солнца над горизонтом, облачности и скорости ветра. Ночью, в пасмурную погоду, а также при ветре 12 м/с и более поправка равна нулю.
P - Атмосферное давление - приведенное к уровню моря атмосферное давление.
Po - Атмосферное давление - измеренное на уровне метеостанции атмосферное давление.
Tmin - Минимальная температура - минимум температуры воздуха на высоте 2 м над землей.
Tmax - Максимальная температура - максимум температуры воздуха на высоте 2 м над землей.
R - Количество осадков - Количество выпавших осадков за период времени, мм. При наведении курсора мыши на число - период времени, за который выпало указанное количество осадков.
R24 - Количество осадков - Количество выпавших осадков за 24 часа, мм.
S - Снежный покров - Высота снежного покрова, см. При наведении курсора мыши на число - состояние снежного покрова и степень покрытия местности в баллах.